User: anonymous   Login
Location: Cahas Mountain Overlook
(37.0833°N, 80.1000°W)
Time: 00:15:01
(UTC-04:00)
Language:

AO-7 - Orbit

View from above orbital plane
View from above orbital plane
View from above satellite
View from above satellite

Ground track
Ground track

The orbit data is extracted from the following two-line orbital elements,

1  7530U 74089B   23081.84381646 -.00000044  00000-0  12341-4 0  9991
2  7530 101.9423  67.9563 0011950 228.0013 196.3604 12.53662481212591
Epoch (UTC): 22 March 2023 20:15:05
Eccentricity: 0.0011950
inclination: 101.9423°
perigee height: 1440 km
apogee height: 1458 km
right ascension of ascending node: 67.9563°
argument of perigee: 228.0013°
revolutions per day: 12.53662481
mean anomaly at epoch: 196.3604°
orbit number at epoch: 21259

The dashed part of the orbit path shows where the satellite is in the earth's shadow,  

DLR